SCP
0 0 -0 0 0 0 0 0 0 0 0 0 0 0 0 0 0 0 0 0 0 0 0 0 0 0 0 0 0 0 0 0
0 -0 -0 0 0 0 0 0 0 -0 0 0 0 0 0 0 0 0 0 0 0 1 1 1 1 1 0 0 0 0 0 0
0 0 0 0 0 0 0 0 0 -0 0 0 0 0 0 0 1 1 0 0 0 1 1 1 1 1 1 0 0 0 0 0
0 0 0 0 -0 0 0 0 0 0 0 0 0 0 0 0 0 0 0 0 0 1 1 1 1 1 1 1 1 0 0 0
0 0 0 -0 -0 0 0 0 0 0 0 0 0 0 0 0 0 0 0 0 1 1 1 2 2 1 1 1 1 1 1 1
0 0 0 -0 0 0 0 0 0 0 0 0 0 0 0 0 0 0 0 2 1 1 1 1 2 3 2 2 1 1 1 1
0 0 0 0 0 0 0 0 0 0 0 0 0 0 0 0 0 0 0 3 2 1 1 1 2 3 3 2 2 1 1 1
0 0 0 0 0 0 0 0 0 0 0 0 0 0 0 0 0 0 0 2 3 2 2 2 2 2 3 2 2 2 1 1
0 0 0 0 0 0 0 -0 0 0 0 0 0 0 0 0 0 0 0 0 2 2 2 2 2 2 3 2 2 2 1 1
0 0 0 0 0 0 0 0 0 0 0 0 0 0 0 0 0 0 0 0 0 1 3 3 3 2 3 1 1 1 1 0
0 0 0 0 0 0 0 0 0 -0 0 0 0 0 0 0 0 0 0 0 0 0 2 3 2 1 2 1 1 0 1 1
0 0 0 0 0 0 0 0 0 0 0 0 0 0 0 0 0 0 0 0 0 0 1 1 1 1 1 1 1 0 1 1
0 0 0 0 0 0 0 0 0 0 0 0 0 0 0 0 0 0 0 0 0 0 1 1 1 1 1 1 1 0 1 1
0 0 0 0 -0 0 0 0 0 0 0 0 0 0 0 0 0 0 0 0 0 2 2 2 1 2 2 1 0 0 0 1
0 0 0 0 0 0 0 0 0 0 0 0 0 0 0 0 0 0 0 0 0 3 2 2 2 2 2 0 0 1 1 1
0 0 0 0 0 0 0 0 0 0 0 0 0 0 0 0 0 0 0 0 1 2 2 3 3 2 1 1 0 0 1 1
0 0 0 0 0 -0 0 0 0 0 0 0 0 0 0 0 0 0 1 2 2 2 2 3 2 2 1 1 0 0 1 0
0 0 0 0 0 0 0 0 0 0 0 0 0 0 0 0 0 0 1 1 1 2 2 2 1 1 1 0 0 0 0 0
0 0 0 0 0 0 0 0 0 0 0 0 0 0 0 0 0 0 1 1 1 1 1 1 1 1 1 0 0 0 0 0
0 0 0 0 0 0 0 -0 0 -0 -0 0 0 0 0 0 0 0 0 0 1 1 1 1 0 1 0 0 0 0 0 0
Wind_Speed_500mb
6 8 11 9 5 7 9 5 13 30 3 13 21 41 43 42 36 26 25 23 23 22 26 29 31 30 30 27 22 17 11 5
4 16 24 22 36 6 6 23 39 67 3 20 30 19 34 37 38 23 23 24 27 27 29 33 34 34 33 32 27 21 15 9
9 16 25 34 46 41 11 10 30 72 13 23 30 36 31 24 26 29 20 22 30 30 33 37 39 38 37 35 31 27 21 16
13 24 34 34 53 38 27 37 21 7 24 18 27 22 15 22 25 26 31 29 31 31 32 38 43 44 43 40 36 33 30 24
18 30 37 30 45 15 17 20 23 18 11 32 40 24 24 17 17 31 39 44 44 44 38 40 45 48 48 45 43 39 37 32
16 23 36 35 45 38 10 26 14 16 3 18 36 24 12 7 24 30 51 55 54 53 43 47 52 56 56 54 50 47 44 40
19 20 28 52 31 64 40 8 20 12 20 19 4 20 19 7 19 33 49 58 61 58 50 49 52 60 61 60 58 55 52 49
28 24 25 45 51 53 46 10 21 30 27 25 40 21 20 25 20 29 36 53 61 61 59 57 55 54 67 64 65 63 61 58
39 50 54 52 47 47 56 26 19 4 32 25 48 43 21 14 23 30 37 42 40 59 61 66 62 55 61 69 70 66 65 65
52 62 62 44 58 48 57 50 32 28 58 47 54 46 47 58 53 48 54 47 48 41 52 68 72 67 59 56 65 64 65 68
66 69 71 69 57 50 61 80 74 68 54 55 54 64 60 51 38 51 54 39 42 45 47 62 76 80 65 59 54 46 45 46
58 62 66 55 57 66 69 69 65 75 83 79 68 63 63 51 51 52 35 36 50 52 53 57 75 83 68 61 53 46 43 39
53 54 47 64 59 56 58 63 69 71 79 77 56 65 73 64 62 31 33 47 56 50 47 46 66 75 64 55 49 43 37 34
41 42 57 45 68 31 65 64 65 65 74 71 64 69 59 54 32 29 34 51 53 43 36 33 56 75 63 52 50 43 46 45
49 48 33 27 57 40 63 67 74 74 77 80 76 69 65 43 39 34 43 48 44 37 37 37 49 73 77 66 52 51 42 36
52 26 33 40 54 56 78 66 66 75 77 78 86 65 42 53 49 45 47 40 38 37 41 42 52 62 69 65 53 49 42 30
34 36 31 37 49 52 44 37 44 60 57 51 37 44 44 66 55 49 37 42 41 42 43 48 56 54 55 52 44 30 31 36
28 24 34 43 40 49 41 35 67 68 60 64 69 62 55 43 47 45 43 41 37 38 44 52 50 42 29 30 40 32 30 36
42 24 38 23 25 38 32 38 47 51 63 47 45 54 57 56 42 47 44 37 31 35 47 45 38 28 23 27 25 31 28 36
36 24 40 9 28 38 31 39 31 40 50 49 50 49 53 49 44 45 40 31 28 35 41 39 31 30 33 37 32 30 34 29
Wind_Direction_500mb
185 194 214 244 353 229 141 48 261 316 214 116 114 121 145 155 171 195 186 180 177 179 187 191 190 189 191 192 192 194 190 189
250 257 271 255 274 8 110 111 302 279 59 64 126 112 145 159 172 194 210 204 196 193 198 200 199 197 199 201 205 210 214 229
236 248 257 256 260 236 191 168 282 228 153 124 115 120 135 157 176 187 225 233 210 210 209 209 208 206 207 209 213 222 226 235
242 260 259 272 278 208 206 194 224 136 135 124 131 136 147 154 190 202 202 235 235 222 223 221 219 217 214 217 221 228 235 237
262 267 284 284 331 311 327 6 57 62 86 138 148 152 160 191 206 222 218 218 234 236 228 233 229 225 225 222 229 232 237 241
271 276 285 296 313 312 14 341 75 62 58 167 170 187 175 222 232 232 224 217 226 236 239 234 231 228 226 228 229 237 240 243
250 254 275 297 324 311 328 337 285 39 358 326 261 183 175 213 265 230 228 229 225 232 242 245 233 232 228 227 230 234 240 244
245 258 276 294 297 303 313 209 233 270 301 290 289 238 271 317 294 286 289 244 238 237 243 241 237 238 233 230 232 234 238 242
258 258 264 270 279 295 300 303 246 21 278 285 296 272 275 258 290 284 283 288 259 247 245 244 241 241 233 232 235 237 242 246
250 262 271 272 278 277 282 287 286 256 244 269 289 269 281 276 278 287 281 270 284 271 254 245 243 239 246 234 233 237 242 248
244 249 255 268 272 270 274 281 287 297 293 286 288 279 285 270 257 273 269 272 279 279 279 248 239 233 239 243 239 237 241 244
252 244 249 257 265 265 262 265 287 288 286 284 284 289 275 271 257 277 263 283 293 286 283 261 243 232 238 242 245 238 237 235
262 259 248 255 261 253 271 281 278 272 273 275 281 283 276 288 270 256 274 289 291 283 280 263 242 229 230 229 236 235 232 224
256 261 254 254 262 273 275 278 276 278 283 278 277 278 288 273 245 271 290 292 283 270 268 245 229 218 207 211 214 214 206 212
250 237 252 249 274 271 273 266 255 258 265 268 263 263 272 269 258 274 287 283 264 256 256 240 226 219 214 216 212 210 203 213
246 239 238 244 255 264 264 261 261 266 263 256 250 253 268 278 265 274 270 261 240 240 241 237 225 214 208 220 221 210 214 220
244 244 263 256 258 268 269 264 268 266 268 249 234 270 280 269 260 260 243 245 235 231 234 231 216 210 206 213 209 203 206 224
263 246 247 247 257 256 253 253 252 257 261 262 255 254 250 251 264 258 245 232 229 234 230 219 214 209 218 214 210 219 234 228
256 285 279 286 290 285 283 274 267 256 259 262 250 247 246 257 256 241 227 227 227 224 209 209 209 202 180 174 193 216 217 223
253 241 254 209 272 264 266 264 266 266 271 272 268 263 249 253 237 227 219 219 226 210 202 206 201 185 172 189 193 192 208 223
Wind_Speed_850mb
6 8 11 9 5 7 9 5 13 30 3 13 21 41 43 42 36 26 25 23 23 22 26 29 31 30 30 27 22 17 11 5
4 16 24 22 36 6 6 23 39 67 3 20 30 19 34 37 38 23 23 24 27 27 29 33 34 34 33 32 27 21 15 9
9 16 25 34 46 41 11 10 30 72 13 23 30 36 31 24 26 29 20 22 30 30 33 37 39 38 37 35 31 27 21 16
13 24 34 34 53 38 27 37 21 7 24 18 27 22 15 22 25 26 31 29 31 31 32 38 43 44 43 40 36 33 30 24
18 30 37 30 45 15 17 20 23 18 11 32 40 24 24 17 17 31 39 44 44 44 38 40 45 48 48 45 43 39 37 32
16 23 36 35 45 38 10 26 14 16 3 18 36 24 12 7 24 30 51 55 54 53 43 47 52 56 56 54 50 47 44 40
19 20 28 52 31 64 40 8 20 12 20 19 4 20 19 7 19 33 49 58 61 58 50 49 52 60 61 60 58 55 52 49
28 24 25 45 51 53 46 10 21 30 27 25 40 21 20 25 20 29 36 53 61 61 59 57 55 54 67 64 65 63 61 58
39 50 54 52 47 47 56 26 19 4 32 25 48 43 21 14 23 30 37 42 40 59 61 66 62 55 61 69 70 66 65 65
52 62 62 44 58 48 57 50 32 28 58 47 54 46 47 58 53 48 54 47 48 41 52 68 72 67 59 56 65 64 65 68
66 69 71 69 57 50 61 80 74 68 54 55 54 64 60 51 38 51 54 39 42 45 47 62 76 80 65 59 54 46 45 46
58 62 66 55 57 66 69 69 65 75 83 79 68 63 63 51 51 52 35 36 50 52 53 57 75 83 68 61 53 46 43 39
53 54 47 64 59 56 58 63 69 71 79 77 56 65 73 64 62 31 33 47 56 50 47 46 66 75 64 55 49 43 37 34
41 42 57 45 68 31 65 64 65 65 74 71 64 69 59 54 32 29 34 51 53 43 36 33 56 75 63 52 50 43 46 45
49 48 33 27 57 40 63 67 74 74 77 80 76 69 65 43 39 34 43 48 44 37 37 37 49 73 77 66 52 51 42 36
52 26 33 40 54 56 78 66 66 75 77 78 86 65 42 53 49 45 47 40 38 37 41 42 52 62 69 65 53 49 42 30
34 36 31 37 49 52 44 37 44 60 57 51 37 44 44 66 55 49 37 42 41 42 43 48 56 54 55 52 44 30 31 36
28 24 34 43 40 49 41 35 67 68 60 64 69 62 55 43 47 45 43 41 37 38 44 52 50 42 29 30 40 32 30 36
42 24 38 23 25 38 32 38 47 51 63 47 45 54 57 56 42 47 44 37 31 35 47 45 38 28 23 27 25 31 28 36
36 24 40 9 28 38 31 39 31 40 50 49 50 49 53 49 44 45 40 31 28 35 41 39 31 30 33 37 32 30 34 29
Wind_Direction_850mb
185 194 214 244 353 229 141 48 261 316 214 116 114 121 145 155 171 195 186 180 177 179 187 191 190 189 191 192 192 194 190 189
250 257 271 255 274 8 110 111 302 279 59 64 126 112 145 159 172 194 210 204 196 193 198 200 199 197 199 201 205 210 214 229
236 248 257 256 260 236 191 168 282 228 153 124 115 120 135 157 176 187 225 233 210 210 209 209 208 206 207 209 213 222 226 235
242 260 259 272 278 208 206 194 224 136 135 124 131 136 147 154 190 202 202 235 235 222 223 221 219 217 214 217 221 228 235 237
262 267 284 284 331 311 327 6 57 62 86 138 148 152 160 191 206 222 218 218 234 236 228 233 229 225 225 222 229 232 237 241
271 276 285 296 313 312 14 341 75 62 58 167 170 187 175 222 232 232 224 217 226 236 239 234 231 228 226 228 229 237 240 243
250 254 275 297 324 311 328 337 285 39 358 326 261 183 175 213 265 230 228 229 225 232 242 245 233 232 228 227 230 234 240 244
245 258 276 294 297 303 313 209 233 270 301 290 289 238 271 317 294 286 289 244 238 237 243 241 237 238 233 230 232 234 238 242
258 258 264 270 279 295 300 303 246 21 278 285 296 272 275 258 290 284 283 288 259 247 245 244 241 241 233 232 235 237 242 246
250 262 271 272 278 277 282 287 286 256 244 269 289 269 281 276 278 287 281 270 284 271 254 245 243 239 246 234 233 237 242 248
244 249 255 268 272 270 274 281 287 297 293 286 288 279 285 270 257 273 269 272 279 279 279 248 239 233 239 243 239 237 241 244
252 244 249 257 265 265 262 265 287 288 286 284 284 289 275 271 257 277 263 283 293 286 283 261 243 232 238 242 245 238 237 235
262 259 248 255 261 253 271 281 278 272 273 275 281 283 276 288 270 256 274 289 291 283 280 263 242 229 230 229 236 235 232 224
256 261 254 254 262 273 275 278 276 278 283 278 277 278 288 273 245 271 290 292 283 270 268 245 229 218 207 211 214 214 206 212
250 237 252 249 274 271 273 266 255 258 265 268 263 263 272 269 258 274 287 283 264 256 256 240 226 219 214 216 212 210 203 213
246 239 238 244 255 264 264 261 261 266 263 256 250 253 268 278 265 274 270 261 240 240 241 237 225 214 208 220 221 210 214 220
244 244 263 256 258 268 269 264 268 266 268 249 234 270 280 269 260 260 243 245 235 231 234 231 216 210 206 213 209 203 206 224
263 246 247 247 257 256 253 253 252 257 261 262 255 254 250 251 264 258 245 232 229 234 230 219 214 209 218 214 210 219 234 228
256 285 279 286 290 285 283 274 267 256 259 262 250 247 246 257 256 241 227 227 227 224 209 209 209 202 180 174 193 216 217 223
253 241 254 209 272 264 266 264 266 266 271 272 268 263 249 253 237 227 219 219 226 210 202 206 201 185 172 189 193 192 208 223